Location: Newark
(21.1200°N, 73.4000°E)
Time: 18:03:29
(UTC+00:00)

Explorer 11/Cluster Stage 4 - Pass Details

Date: 28 January 2020
Orbit: 467 x 1259 km, 28.8° (Epoch: 23 February)

Event Time Altitude Azimuth Distance (km) Brightness Sun altitude
Rises 15:11:41 0° 273° (W) 3,730 11.1 -32.0°
Reaches altitude 10° 15:15:39 10° 254° (WSW) 2,601 10.1 -32.9°
Maximum altitude 15:19:19 16° 218° (SW) 2,018 9.1 -33.8°
Enters shadow 15:21:18 14° 193° (SSW) 2,073 8.9 -34.2°
Drops below altitude 10° 15:22:35 10° 180° (S) 2,256 - -34.5°
Sets 15:25:41 0° 158° (SSE) 3,015 - -35.2°
